CWLEESTJE Weather Reports


Display with metric or nautical units.
time (UTC)temp
F
wind
direction
speed
MPH
gust
MPH
rain 1hr
in
rain 24hr
in
rain mn
in
humidity
%
barometer
mb
20260505050548 51 5 9.0 16.0 0.00 0.00 0.00 88
20260505041525 51 13 10.0 13.0 0.00 0.00 0.00 88
20260505040529 51 5 8.0 11.0 0.00 0.00 0.00 88
20260505035538 52 11 7.0 10.0 0.00 0.00 0.00 88
20260505034552 52 20 8.0 10.0 0.00 0.00 0.00 88
20260505033534 52 22 7.0 12.0 0.00 0.00 0.00 88
20260505032538 52 16 6.0 10.0 0.00 0.00 0.00 88
20260505031532 52 41 8.0 13.0 0.00 0.00 0.00 88
20260505030535 52 30 8.0 11.0 0.00 0.00 0.00 88
20260505025548 52 22 10.0 12.0 0.00 0.00 0.00 89
20260505024532 52 42 7.0 11.0 0.00 0.00 0.00 89
20260505023541 52 22 10.0 15.0 0.00 0.00 0.00 89
20260505022525 52 25 7.0 13.0 0.00 0.00 0.00 89
20260505021529 52 34 10.0 14.0 0.00 0.00 0.00 89
20260505020542 52 40 8.0 14.0 0.00 0.00 0.00 90
20260505015525 52 33 9.0 16.0 0.00 0.00 0.00 90
20260505014558 52 11 9.0 14.0 0.00 0.00 0.00 90
20260505013550 52 355 9.0 16.0 0.00 0.00 0.00 90
20260505012529 52 5 10.0 18.0 0.00 0.00 0.00 91
20260505011604 52 9 9.0 13.0 0.00 0.00 0.00 91
20260505010556 52 15 7.0 13.0 0.00 0.00 0.00 91
20260505005548 52 14 8.0 11.0 0.00 0.00 0.00 91
20260505004532 52 17 9.0 12.0 0.00 0.00 0.00 91
20260505003534 52 13 7.0 11.0 0.00 0.00 0.00 91
20260505002548 52 9 8.0 13.0 0.00 0.00 0.00 91
20260505001536 52 24 8.0 14.0 0.00 0.00 0.00 91
20260505000610 52 19 7.0 12.0 0.00 0.00 0.00 91
20260504235534 52 5 8.0 14.0 0.00 0.00 0.00 91
20260504234538 52 17 9.0 13.0 0.00 0.00 0.00 91
20260504233531 52 15 8.0 11.0 0.00 0.00 0.00 91
20260504232534 52 360 10.0 13.0 0.00 0.00 0.00 91
20260504231529 52 16 9.0 15.0 0.00 0.00 0.00 91
20260504230528 52 19 11.0 16.0 0.00 0.00 0.00 91
20260504225542 52 9 10.0 16.0 0.00 0.00 0.00 91
20260504224545 52 12 8.0 15.0 0.00 0.00 0.00 91
20260504223538 52 19 10.0 18.0 0.00 0.00 0.00 91
20260504222553 52 19 10.0 18.0 0.00 0.00 0.00 91
20260504221535 52 43 9.0 18.0 0.00 0.00 0.00 91
20260504220548 52 5 12.0 18.0 0.00 0.00 0.00 91
20260504215527 52 355 10.0 20.0 0.00 0.00 0.00 91
20260504214601 52 16 13.0 19.0 0.00 0.00 0.00 91
20260504213552 52 5 12.0 18.0 0.00 0.00 0.00 91
20260504212535 52 5 11.0 22.0 0.00 0.00 0.00 90
20260504211548 53 15 13.0 18.0 0.00 0.00 0.00 91
20260504210533 53 360 10.0 18.0 0.00 0.00 0.00 91
20260504205547 53 23 11.0 16.0 0.00 0.00 0.00 91
20260504204527 53 15 9.0 20.0 0.00 0.00 0.00 91
20260504203531 52 35 12.0 19.0 0.00 0.00 0.00 91
20260504202523 52 9 10.0 16.0 0.00 0.00 0.00 91
20260504201557 53 350 9.0 15.0 0.00 0.00 0.00 91
20260504200540 53 19 9.0 16.0 0.00 0.00 0.00 91
20260504195524 52 5 9.0 14.0 0.00 0.00 0.00 90
20260504194538 52 360 8.0 13.0 0.00 0.00 0.00 90
20260504193546 53 5 9.0 13.0 0.00 0.00 0.00 90
20260504192531 53 15 8.0 10.0 0.00 0.00 0.00 90
20260504191604 53 5 6.0 12.0 0.00 0.00 0.00 90
20260504190526 53 49 9.0 15.0 0.00 0.00 0.00 90
20260504185540 53 36 11.0 19.0 0.00 0.00 0.00 90
20260504184544 54 42 10.0 16.0 0.00 0.00 0.00 89
20260504183557 54 5 11.0 21.0 0.00 0.00 0.00 89
20260504182536 54 32 11.0 21.0 0.00 0.00 0.00 89
20260504181529 54 24 12.0 20.0 0.00 0.00 0.00 89
20260504180602 55 22 11.0 18.0 0.00 0.00 0.00 89
20260504175525 55 355 13.0 19.0 0.00 0.00 0.00 89
20260504174530 55 22 10.0 16.0 0.00 0.00 0.00 89
20260504173543 55 10 12.0 18.0 0.00 0.00 0.00 88
20260504172527 56 5 10.0 18.0 0.00 0.00 0.00 88
20260504171539 56 24 11.0 18.0 0.00 0.00 0.00 87
20260504170539 57 30 9.0 16.0 0.00 0.00 0.00 87
20260504150547 65 22 11.0 18.0 0.00 0.24 0.00 80
20260504140524 69 5 2.0 7.0 0.00 0.31 0.00 70
20260504130531 67 333 1.0 6.0 0.00 0.87 0.00 74
20260504110549 64 348 2.0 5.0 0.00 0.87 0.00 80
20260504100532 63 355 2.0 5.0 0.00 0.87 0.00 84
20260504081530 59 313 4.0 6.0 0.00 0.91 0.00 90
20260504080543 58 296 1.0 5.0 0.00 0.91 0.00 91